Wind_Speed
34 34 35 35 35 36 35 35 35 35 35 35 35 35 35 34 34 33 33 33 33 34 34 33 34 33 33 32 32 32 32 32 32 33 33 34 34 34 35 35 35 35 34
35 35 35 36 37 37 36 36 36 35 35 36 36 36 36 36 35 35 35 35 34 35 35 34 34 35 35 35 35 35 35 35 35 35 36 36 36 37 37 37 37 37 37
35 36 36 36 37 37 37 38 38 37 37 37 37 37 38 38 37 37 36 36 36 36 37 37 37 37 37 37 37 38 38 38 37 37 38 38 39 39 39 39 40 40 39
36 37 38 38 38 38 39 39 40 39 39 38 39 39 39 39 38 38 38 38 38 38 38 38 39 39 39 39 40 40 40 40 40 40 40 40 41 41 41 41 42 42 42
38 38 39 39 39 39 40 40 40 40 40 40 40 40 40 40 40 40 40 40 40 41 40 40 40 41 41 41 41 42 42 43 43 43 43 43 43 43 43 43 44 44 44
40 40 40 41 40 40 40 41 41 42 42 42 42 42 42 42 42 43 43 43 43 43 42 42 42 42 43 43 44 44 44 45 45 45 45 45 45 45 45 45 46 46 46
40 41 41 41 41 42 42 43 43 43 44 44 44 44 44 43 43 44 44 44 45 45 44 44 44 44 45 45 45 45 46 46 46 47 46 46 46 46 47 46 47 47 47
40 40 41 41 42 43 44 45 45 44 45 45 45 45 45 45 45 45 45 46 46 46 46 45 46 46 46 47 47 47 46 47 47 48 48 47 47 48 48 49 48 48 48
40 40 41 41 42 43 43 44 44 45 45 46 46 46 47 46 46 46 47 47 46 46 46 46 47 47 47 48 48 48 48 48 48 48 48 49 49 49 50 50 49 49 49
40 40 41 42 42 43 43 43 43 44 45 45 46 46 47 47 47 48 48 48 47 47 47 48 48 48 48 49 49 49 49 49 49 50 50 50 50 50 50 50 49 49 50
40 40 40 41 42 43 43 43 44 44 45 45 45 46 45 46 47 48 49 48 49 48 48 48 49 49 49 49 48 49 49 49 50 50 50 51 51 50 50 50 50 50 50
40 40 40 41 42 42 43 43 43 43 44 45 45 45 45 46 46 48 48 48 48 48 48 48 48 49 49 49 48 48 49 49 49 48 49 49 50 50 50 51 52 52 52
40 41 41 41 42 42 43 43 44 44 44 45 45 45 46 46 47 48 48 47 47 47 48 48 48 48 48 48 48 48 49 49 49 48 49 49 49 50 51 51 51 52 52
42 41 41 42 43 43 43 44 44 45 45 45 46 46 46 46 47 47 47 47 47 47 47 47 48 48 48 48 48 49 49 49 49 49 49 49 49 50 50 50 50 50 51
43 43 43 42 42 43 44 44 45 45 46 46 46 47 47 47 47 47 47 47 47 47 47 47 48 48 48 48 49 49 49 49 49 49 49 49 49 50 49 49 50 51 51
43 44 44 44 44 44 44 45 45 46 46 46 47 47 48 47 47 47 47 47 48 48 48 48 48 49 49 49 49 50 50 50 49 49 49 49 49 49 49 49 50 50 50
44 44 45 45 45 45 45 45 46 46 46 46 47 47 47 48 48 47 47 47 47 48 49 48 49 49 49 49 49 50 50 50 50 49 49 49 49 49 49 49 49 49 50
44 44 45 44 44 44 45 45 45 46 46 46 46 46 46 47 48 48 48 48 48 48 49 48 48 47 47 47 48 48 48 49 49 49 49 49 49 49 48 48 48 49 49
44 44 45 45 45 44 44 43 44 45 45 45 45 46 46 47 47 48 47 47 47 47 46 46 45 46 46 45 46 46 46 47 48 48 48 48 47 47 47 47 47 48 48
43 43 43 44 44 44 44 44 44 44 44 44 45 45 46 46 46 46 46 46 45 45 44 44 44 44 44 44 45 45 46 46 47 47 47 46 45 45 46 46 46 47 46
41 42 42 42 43 43 43 43 43 43 43 43 44 44 45 44 45 44 44 44 43 43 43 43 43 43 43 43 44 44 45 46 46 45 45 44 44 44 45 44 44 44 44
39 40 40 41 41 41 41 41 41 41 41 41 42 42 43 42 42 43 43 43 43 43 42 42 41 41 42 42 42 42 43 43 43 42 42 42 42 42 42 42 41 41 41
36 36 36 37 37 38 39 39 39 39 40 40 41 41 41 41 41 41 41 41 41 41 41 41 40 40 40 40 41 41 42 41 41 41 40 40 40 40 40 41 41 40 40
33 33 33 34 34 35 35 36 37 38 39 39 39 40 39 39 39 39 39 39 39 39 39 39 39 38 39 39 39 40 40 40 39 40 40 39 38 38 39 39 39 38 37
31 31 32 32 32 32 32 33 34 35 35 35 35 36 36 36 37 37 37 37 37 37 37 37 37 37 37 38 38 38 38 38 37 37 37 37 37 37 36 36 37 36 36
31 31 30 30 29 29 30 31 32 32 32 32 32 33 33 34 34 34 34 35 35 36 36 36 36 36 36 36 36 35 36 35 34 34 34 34 35 35 34 34 34 35 35
Wind_Direction
256 257 256 256 256 257 258 258 258 260 261 262 263 264 263 264 265 265 266 267 267 267 266 267 267 267 268 270 271 272 273 274 274 275 275 275 276 277 278 277 278 279 280
258 258 258 257 257 258 258 260 260 261 263 263 263 264 264 264 264 266 266 267 268 268 267 267 267 268 268 269 270 271 272 273 274 275 276 276 277 277 278 278 279 279 280
260 260 260 259 258 258 258 260 260 261 262 263 263 263 264 264 265 266 266 266 267 268 268 267 267 268 268 269 270 271 272 273 274 275 275 276 277 277 277 277 278 279 279
260 260 261 260 260 259 259 260 260 261 262 263 264 264 265 264 265 265 266 266 267 267 268 268 268 268 269 270 270 271 271 273 273 274 275 276 276 277 277 277 277 278 278
261 261 262 261 261 260 260 260 260 261 262 263 263 265 265 265 264 265 265 266 267 267 268 269 269 269 269 270 271 271 272 273 274 275 275 276 276 277 277 277 277 278 278
262 261 262 262 260 261 262 262 262 262 262 264 264 265 265 265 265 266 266 266 267 268 268 270 270 270 270 271 271 272 273 274 275 275 275 276 276 276 277 278 277 278 278
263 263 262 261 261 261 262 263 263 263 263 264 265 265 265 265 266 266 267 267 268 268 269 270 271 271 271 272 272 273 274 275 275 275 275 275 276 276 277 278 278 278 278
265 265 264 264 263 263 263 264 263 263 264 265 265 266 266 265 266 266 267 267 268 269 270 271 271 272 271 272 272 273 274 275 275 274 274 275 276 277 277 278 278 278 278
265 265 266 267 265 264 265 264 263 263 264 264 266 267 267 266 266 267 268 269 270 270 270 271 271 272 273 273 273 274 274 274 275 275 275 275 276 277 277 278 278 278 277
267 267 267 267 267 267 266 265 265 264 264 265 266 267 266 267 267 268 268 269 269 270 271 271 272 272 273 274 274 274 274 274 275 275 276 276 277 277 278 278 278 278 277
268 269 269 269 270 270 269 267 266 265 266 267 267 267 268 269 269 268 268 269 269 270 271 272 273 272 273 274 274 274 274 275 275 276 278 277 278 278 278 277 278 278 278
269 269 270 270 270 270 269 268 267 267 268 268 267 267 269 271 271 270 269 269 270 270 271 272 273 272 272 273 274 275 275 276 276 277 278 278 278 279 278 278 278 278 278
271 270 270 270 270 270 269 268 269 269 270 269 268 268 269 270 272 272 271 270 270 271 271 272 273 272 272 273 274 275 276 275 276 277 277 278 279 279 279 278 278 278 278
272 272 271 270 270 269 269 269 270 270 270 270 270 270 270 270 271 272 271 271 270 270 271 272 272 273 273 274 275 275 276 275 276 276 277 278 278 279 279 279 279 279 279
271 271 271 271 271 269 269 270 271 270 271 271 271 270 270 270 271 270 270 271 271 270 271 272 272 272 273 273 274 275 276 277 277 276 276 277 277 278 278 278 279 280 280
271 271 271 271 271 271 271 272 272 271 271 271 271 271 270 269 270 270 270 271 272 272 272 272 272 272 273 273 274 275 275 276 277 277 277 277 277 278 278 279 280 280 280
272 271 271 271 271 271 271 272 271 271 271 271 271 270 270 270 270 270 270 271 272 273 273 273 273 274 274 274 274 275 275 277 277 278 277 277 278 278 279 280 280 281 281
272 272 271 271 271 271 271 272 272 271 271 271 271 271 271 270 270 270 270 271 272 274 274 274 274 275 275 275 275 275 275 276 277 278 278 278 278 280 280 280 281 282 282
274 273 272 271 270 270 270 271 272 272 273 273 272 271 272 271 270 270 270 271 272 273 274 274 275 275 275 275 275 275 276 276 277 278 278 278 279 279 280 281 281 282 282
275 274 272 271 270 270 271 271 271 272 272 272 272 272 272 272 271 270 271 271 272 273 274 275 276 276 276 276 275 275 276 277 278 278 278 279 279 279 280 281 281 282 281
275 274 273 272 272 271 271 271 271 271 272 272 272 272 273 273 272 271 271 271 272 272 274 276 277 277 277 277 276 276 276 277 277 278 278 279 279 280 281 281 282 282 281
276 275 274 274 273 272 272 272 272 271 272 272 273 273 273 273 272 271 271 272 271 272 274 275 276 277 277 277 278 278 277 276 277 277 278 278 280 280 281 281 282 282 282
278 278 276 274 274 274 273 273 272 272 272 273 274 273 273 272 272 271 271 271 271 272 273 275 276 277 278 278 278 278 278 277 277 277 278 279 280 281 281 281 281 281 281
280 279 277 276 275 274 274 274 273 273 274 274 275 274 273 272 272 272 271 271 271 271 273 274 276 277 277 277 278 278 278 278 279 278 278 279 280 281 280 281 281 281 281
282 281 280 278 277 276 276 276 275 275 276 277 277 275 274 273 272 271 270 269 269 270 271 274 276 277 277 277 278 278 278 279 278 278 279 279 279 280 281 281 282 281 281
283 283 281 279 277 277 276 275 275 276 277 278 277 277 276 275 273 271 271 270 271 271 272 274 276 276 277 278 278 279 279 278 278 279 278 279 280 280 281 281 282 282 281
Height
5778 5780 5781 5783 5785 5786 5787 5789 5791 5792 5793 5794 5795 5796 5797 5798 5798 5799 5800 5800 5801 5801 5801 5802 5802 5802 5802 5802 5802 5803 5803 5803 5802 5802 5802 5801 5801 5801 5800 5799 5799 5798 5797
5770 5772 5774 5775 5777 5778 5779 5781 5782 5784 5785 5786 5787 5788 5789 5790 5790 5791 5792 5792 5793 5793 5793 5794 5794 5794 5794 5794 5795 5795 5795 5795 5795 5794 5794 5793 5793 5792 5792 5791 5790 5790 5789
5762 5764 5765 5767 5768 5769 5771 5772 5774 5775 5776 5778 5779 5780 5780 5781 5782 5783 5783 5784 5784 5784 5785 5785 5786 5786 5786 5786 5786 5786 5786 5786 5786 5786 5785 5785 5784 5784 5783 5782 5781 5780 5780
5754 5755 5757 5758 5759 5761 5762 5763 5765 5766 5767 5769 5770 5771 5772 5772 5773 5774 5774 5775 5775 5776 5776 5776 5776 5777 5777 5777 5777 5777 5777 5777 5777 5776 5776 5775 5775 5774 5773 5772 5771 5771 5770
5745 5746 5748 5749 5750 5751 5753 5754 5755 5756 5758 5759 5760 5761 5762 5763 5763 5764 5765 5765 5765 5766 5766 5766 5766 5767 5767 5767 5767 5767 5767 5767 5767 5766 5766 5765 5764 5763 5763 5761 5761 5760 5759
5735 5737 5738 5739 5741 5742 5743 5744 5746 5747 5748 5749 5750 5751 5752 5753 5753 5754 5755 5755 5755 5755 5756 5756 5756 5757 5757 5757 5757 5757 5757 5756 5756 5756 5755 5754 5753 5752 5752 5750 5749 5749 5748
5726 5727 5728 5729 5730 5732 5733 5734 5735 5736 5737 5738 5739 5740 5741 5742 5742 5743 5744 5744 5745 5745 5745 5745 5745 5746 5746 5746 5746 5746 5746 5745 5745 5744 5744 5743 5742 5741 5740 5739 5738 5736 5736
5716 5716 5717 5718 5719 5721 5722 5723 5724 5725 5726 5727 5728 5729 5730 5732 5732 5732 5732 5733 5733 5733 5734 5734 5735 5735 5735 5735 5734 5734 5734 5734 5733 5733 5732 5731 5730 5729 5728 5727 5725 5724 5723
5705 5706 5707 5707 5708 5709 5710 5712 5713 5714 5715 5716 5717 5717 5718 5719 5720 5721 5721 5721 5721 5721 5722 5723 5723 5723 5722 5722 5722 5722 5722 5721 5721 5720 5720 5719 5718 5716 5715 5714 5713 5712 5711
5695 5696 5696 5696 5697 5698 5699 5700 5701 5703 5703 5704 5705 5706 5706 5707 5708 5709 5710 5709 5709 5709 5710 5710 5711 5710 5710 5710 5710 5710 5709 5709 5708 5707 5707 5706 5704 5703 5702 5701 5700 5699 5698
5686 5686 5686 5686 5687 5687 5688 5689 5690 5691 5692 5693 5693 5694 5694 5695 5695 5696 5697 5698 5698 5698 5697 5698 5698 5698 5698 5697 5697 5697 5696 5696 5695 5694 5693 5692 5691 5690 5689 5688 5687 5686 5685
5676 5676 5676 5676 5677 5677 5678 5679 5679 5680 5680 5681 5681 5682 5683 5683 5683 5683 5684 5685 5685 5686 5685 5685 5685 5685 5685 5685 5685 5684 5683 5683 5682 5681 5680 5679 5677 5676 5676 5675 5674 5672 5671
5666 5666 5666 5666 5666 5666 5667 5668 5668 5669 5669 5669 5670 5670 5671 5671 5671 5671 5671 5672 5673 5674 5673 5673 5673 5673 5672 5672 5672 5671 5670 5670 5669 5668 5667 5666 5664 5663 5662 5661 5660 5659 5658
5656 5655 5655 5655 5656 5655 5656 5657 5657 5657 5657 5657 5658 5658 5658 5659 5658 5658 5659 5660 5661 5661 5662 5661 5660 5660 5659 5659 5659 5658 5657 5656 5656 5655 5654 5653 5652 5650 5649 5648 5647 5645 5644
5645 5644 5644 5644 5644 5644 5644 5645 5645 5645 5645 5646 5646 5646 5646 5646 5646 5646 5646 5647 5648 5648 5650 5649 5648 5647 5646 5646 5645 5645 5644 5643 5642 5641 5640 5639 5638 5637 5636 5635 5633 5632 5630
5633 5632 5632 5632 5632 5632 5633 5633 5633 5633 5633 5633 5633 5634 5634 5634 5634 5634 5634 5634 5634 5635 5635 5636 5635 5634 5633 5632 5632 5631 5631 5630 5628 5627 5627 5626 5625 5624 5623 5621 5620 5618 5616
5621 5621 5621 5620 5620 5621 5621 5621 5621 5621 5621 5621 5621 5621 5621 5621 5621 5621 5621 5621 5621 5621 5621 5622 5621 5621 5620 5619 5618 5618 5617 5616 5615 5614 5613 5612 5611 5610 5609 5608 5606 5604 5602
5609 5609 5609 5608 5608 5608 5608 5608 5608 5608 5608 5608 5608 5608 5608 5608 5608 5608 5608 5608 5608 5608 5608 5608 5608 5608 5607 5606 5605 5605 5604 5603 5602 5601 5600 5599 5598 5597 5596 5594 5592 5590 5589
5597 5597 5596 5596 5596 5596 5596 5596 5596 5596 5595 5595 5595 5595 5595 5595 5595 5595 5595 5595 5595 5595 5595 5595 5595 5595 5594 5593 5593 5592 5591 5590 5589 5588 5587 5586 5585 5584 5582 5581 5579 5577 5575
5585 5584 5584 5584 5584 5584 5584 5584 5584 5583 5583 5583 5583 5583 5582 5582 5582 5582 5582 5582 5583 5583 5583 5582 5582 5582 5582 5581 5580 5579 5579 5578 5577 5575 5574 5574 5573 5571 5570 5568 5567 5564 5562
5573 5573 5572 5572 5572 5572 5572 5572 5572 5571 5571 5571 5571 5570 5570 5570 5569 5569 5570 5570 5570 5571 5571 5570 5570 5570 5570 5569 5568 5567 5566 5565 5564 5563 5563 5562 5561 5559 5557 5556 5554 5552 5550
5562 5561 5561 5561 5561 5561 5561 5560 5560 5560 5560 5559 5559 5558 5558 5558 5557 5557 5558 5558 5558 5559 5559 5559 5559 5558 5557 5556 5555 5554 5554 5553 5553 5552 5551 5550 5548 5548 5546 5544 5542 5540 5538
5551 5551 5550 5550 5550 5550 5549 5549 5548 5548 5548 5548 5547 5547 5547 5547 5546 5546 5546 5546 5547 5547 5547 5547 5547 5546 5545 5545 5544 5543 5542 5541 5540 5540 5540 5539 5537 5536 5534 5532 5530 5529 5527
5542 5541 5540 5540 5539 5539 5539 5538 5538 5537 5537 5537 5536 5536 5536 5536 5535 5535 5535 5535 5536 5536 5536 5536 5536 5535 5533 5532 5532 5531 5530 5530 5529 5528 5528 5528 5526 5525 5523 5521 5519 5517 5517
5533 5532 5531 5530 5530 5530 5529 5528 5528 5527 5527 5526 5526 5525 5525 5525 5525 5525 5525 5525 5525 5525 5525 5525 5524 5523 5522 5521 5520 5520 5519 5519 5519 5518 5516 5516 5515 5514 5513 5511 5509 5507 5506
5524 5523 5522 5521 5521 5521 5520 5519 5518 5518 5518 5517 5517 5516 5515 5515 5515 5515 5515 5515 5515 5515 5515 5514 5514 5513 5512 5511 5510 5509 5509 5508 5508 5508 5507 5506 5505 5504 5504 5502 5500 5498 5496